Location: Evergreen Manor
(41.4083°N, 81.4939°W)
Time: 19:47:22
(UTC+00:00)

Lacrosse 5 - Pass Details

Date: 11 December 2019
Orbit: 717 x 722 km, 57.0° (Epoch: 10 January)

Event Time Altitude Azimuth Distance (km) Brightness Sun altitude
Rises 00:15:15 0° 198° (SSW) 3,107 5.5 -25.2°
Reaches altitude 10° 00:17:47 10° 189° (S) 2,191 4.5 -25.7°
Enters shadow 00:20:08 24° 170° (S) 1,470 3.4 -26.1°
